Weather History for Valdosta Regional, GA

Change the Weather History Date:

Sunday, December 11, 2011

  Actual Average Record
Temperature  
Mean Temperature 52 °F 54 °F  
Max Temperature 55 °F 66 °F 80 °F (2007)
Min Temperature 48 °F 42 °F 37 °F (1996)
Degree Days  
Heating Degree Days 14 12  
Month to date heating degree days 117  
Since 1 July heating degree days 348  
Growing Degree Days 2 (Base 50)    
Moisture  
Dew Point 39 °F    
Average Humidity 60    
Maximum Humidity 77    
Minimum Humidity 53    
Precipitation  
Precipitation 0.00 in 0.12 in 0.54 in (2008)
Month to date precipitation 1.21  
Year to date precipitation 48.64  
Sea Level Pressure  
Sea Level Pressure 30.35 in    
Wind  
Wind Speed 9 mph (NE)    
Max Wind Speed 13 mph    
Max Gust Speed 20 mph    
Visibility 10 miles    
Events      
T = Trace of Precipitation, MM = Missing Value Source: NWS Daily Summary

Daily Weather History Graph

Daily Weather History Graph

Search for Another Location

Airport:

Trip Planner

Search our weather history database for the weather conditions in past years. The results will help you decide how hot, cold, wet, or windy it might be!

Date:

Astronomy

Dec. 11, 2011 Rise Set
Actual Time 7:20 AM EST 5:32 PM EST
Civil Twilight 6:53 AM EST 5:58 PM EST
Nautical Twilight 6:23 AM EST 6:28 PM EST
Astronomical Twilight 5:54 AM EST 6:58 PM EST
Moon 6:40 PM EST (12/11) 8:07 AM EST (12/11)
Length of Visible Light 11h 04m
Length of Day
10h 11m
Full, 99% of the Moon is Illuminated
Dec 11
Full
Dec 17
Last Quarter
Dec 24
New
Jan 1
First Quarter
Jan 9
Full

Hourly Weather History & Observations

Time (EST) Temp. Dew Point Humidity Pressure Visibility Wind Dir Wind Speed Gust Speed Precip Events Conditions
12:53 AM 48.0 °F 41.0 °F 77% 30.34 in 10.0 mi NNE 9.2 mph - N/A   Overcast
1:53 AM 50.0 °F 37.0 °F 61% 30.34 in 10.0 mi NE 8.1 mph 16.1 mph N/A   Overcast
2:53 AM 50.0 °F 35.1 °F 57% 30.32 in 10.0 mi NE 11.5 mph - N/A   Overcast
3:53 AM 50.0 °F 35.1 °F 57% 30.32 in 10.0 mi NE 9.2 mph - N/A   Overcast
4:53 AM 50.0 °F 36.0 °F 59% 30.33 in 10.0 mi NE 8.1 mph - N/A   Overcast
5:10 AM 50.0 °F 35.6 °F 58% 30.30 in 10.0 mi NNE 8.1 mph - N/A   Overcast
5:53 AM 50.0 °F 36.0 °F 59% 30.33 in 10.0 mi NE 9.2 mph - N/A   Overcast
6:53 AM 51.1 °F 35.1 °F 54% 30.35 in 10.0 mi NE 9.2 mph - N/A   Overcast
7:48 AM 51.8 °F 35.6 °F 54% 30.34 in - NE 8.1 mph - N/A   Unknown
7:53 AM 51.1 °F 35.1 °F 54% 30.37 in 10.0 mi NNE 12.7 mph - N/A   Unknown
8:20 AM 51.8 °F 35.6 °F 54% 30.36 in 10.0 mi NE 10.4 mph - N/A   Overcast
8:53 AM 52.0 °F 35.1 °F 53% 30.39 in 10.0 mi NNE 6.9 mph - N/A   Overcast
9:53 AM 51.8 °F 35.6 °F 54% 30.38 in 10.0 mi NE 8.1 mph - N/A   Overcast
10:53 AM 54.0 °F 37.9 °F 55% 30.41 in 10.0 mi NNE 11.5 mph - N/A   Overcast
11:53 AM 55.0 °F 41.0 °F 59% 30.40 in 10.0 mi NE 12.7 mph 17.3 mph N/A   Overcast
12:53 PM 55.0 °F 42.1 °F 62% 30.38 in 10.0 mi NE 11.5 mph - N/A   Overcast
1:53 PM 55.0 °F 42.1 °F 62% 30.35 in 10.0 mi NE 6.9 mph - N/A   Overcast
2:53 PM 55.9 °F 43.0 °F 62% 30.34 in 10.0 mi NE 9.2 mph - N/A   Overcast
3:53 PM 55.9 °F 44.1 °F 64% 30.35 in 10.0 mi NE 8.1 mph - N/A   Overcast
4:53 PM 55.0 °F 42.1 °F 62% 30.33 in 10.0 mi NNE 11.5 mph - N/A   Overcast
5:53 PM 54.0 °F 41.0 °F 62% 30.36 in 8.0 mi NNE 6.9 mph - N/A   Overcast
6:53 PM 53.1 °F 39.9 °F 61% 30.35 in 10.0 mi NE 10.4 mph - N/A   Overcast
7:53 PM 53.1 °F 41.0 °F 64% 30.36 in 10.0 mi NE 9.2 mph - N/A   Overcast
8:53 PM 54.0 °F 41.0 °F 62% 30.36 in 10.0 mi NE 11.5 mph - N/A   Overcast
9:53 PM 54.0 °F 42.1 °F 64% 30.36 in 10.0 mi NE 11.5 mph - N/A   Overcast
10:53 PM 54.0 °F 42.1 °F 64% 30.35 in 10.0 mi NE 9.2 mph 19.6 mph N/A   Overcast